Time,TemperatureF,DewpointF,PressureIn,WindDirection,WindDirectionDegrees,WindSpeedMPH,WindSpeedGustMPH,Humidity,HourlyPrecipIn,Conditions,Clouds,dailyrainin,SoftwareType,DateUTC
2013-02-24 00:03:00,32.2,22.8,28.67,SSW,193,0.0,0.0,68,0.00,,---,0.00,VWS V14.01,2013-02-24 08:03:00,
2013-02-24 00:09:00,32.2,22.8,28.67,SSW,193,0.0,0.0,68,0.00,,---,0.00,VWS V14.01,2013-02-24 08:09:00,
2013-02-24 00:14:00,32.2,22.8,28.67,SSW,193,0.0,0.0,68,0.00,,---,0.00,VWS V14.01,2013-02-24 08:14:00,
2013-02-24 00:19:00,32.2,22.8,28.67,SSW,193,0.0,0.0,68,0.00,,---,0.00,VWS V14.01,2013-02-24 08:19:00,
2013-02-24 00:24:00,32.2,22.8,28.67,SSW,193,0.0,0.0,68,0.00,,---,0.00,VWS V14.01,2013-02-24 08:24:00,
2013-02-24 00:30:00,32.2,22.8,28.67,SSW,193,0.0,0.0,68,0.00,,---,0.00,VWS V14.01,2013-02-24 08:30:00,
2013-02-24 00:35:00,32.2,22.8,28.67,SSW,193,0.0,0.0,68,0.00,,---,0.00,VWS V14.01,2013-02-24 08:35:00,
2013-02-24 00:40:00,32.2,22.8,28.67,SSW,193,0.0,0.0,68,0.00,,---,0.00,VWS V14.01,2013-02-24 08:40:00,
2013-02-24 00:45:00,32.2,22.8,28.67,SSW,193,0.0,0.0,68,0.00,,---,0.00,VWS V14.01,2013-02-24 08:45:00,
2013-02-24 00:51:00,32.2,23.5,28.67,SSW,193,0.0,0.0,70,0.00,,---,0.00,VWS V14.01,2013-02-24 08:51:00,
2013-02-24 00:56:00,32.2,23.5,28.67,SSW,193,0.0,0.0,70,0.00,,---,0.00,VWS V14.01,2013-02-24 08:56:00,
2013-02-24 01:01:00,32.2,23.5,28.67,SSW,193,0.0,0.0,70,0.00,,---,0.00,VWS V14.01,2013-02-24 09:01:00,
2013-02-24 01:06:00,32.2,23.5,28.67,SSW,193,0.0,0.0,70,0.00,,---,0.00,VWS V14.01,2013-02-24 09:06:00,
2013-02-24 01:12:00,32.2,23.5,28.67,SSW,193,0.0,0.0,70,0.00,,---,0.00,VWS V14.01,2013-02-24 09:12:00,
2013-02-24 01:17:00,32.2,23.5,28.67,SSW,193,0.0,0.0,70,0.00,,---,0.00,VWS V14.01,2013-02-24 09:17:00,
2013-02-24 01:22:00,32.2,23.5,28.67,SSW,193,0.0,0.0,70,0.00,,---,0.00,VWS V14.01,2013-02-24 09:22:00,
2013-02-24 01:27:00,32.2,23.5,28.67,SSW,193,0.0,0.0,70,0.00,,---,0.00,VWS V14.01,2013-02-24 09:27:00,
2013-02-24 01:33:00,32.2,23.5,28.67,SSW,193,0.0,0.0,70,0.00,,---,0.00,VWS V14.01,2013-02-24 09:33:00,
2013-02-24 01:38:00,32.2,23.5,28.67,SSW,193,0.0,0.0,70,0.00,,---,0.00,VWS V14.01,2013-02-24 09:38:00,
2013-02-24 01:43:00,32.2,23.5,28.67,SSW,193,0.0,0.0,70,0.00,,---,0.00,VWS V14.01,2013-02-24 09:43:00,
2013-02-24 01:48:00,32.2,23.5,28.67,SSW,193,0.0,0.0,70,0.00,,---,0.00,VWS V14.01,2013-02-24 09:48:00,
2013-02-24 01:54:00,32.2,23.5,28.67,SSW,193,0.0,0.0,70,0.00,,---,0.00,VWS V14.01,2013-02-24 09:54:00,
2013-02-24 01:59:00,32.2,23.5,28.67,SSW,193,0.0,0.0,70,0.00,,---,0.00,VWS V14.01,2013-02-24 09:59:00,
2013-02-24 02:04:00,32.2,23.5,28.67,SSW,193,0.0,0.0,70,0.00,,---,0.00,VWS V14.01,2013-02-24 10:04:00,
2013-02-24 02:09:00,32.2,23.5,28.67,SSW,193,0.0,0.0,70,0.00,,---,0.00,VWS V14.01,2013-02-24 10:09:00,
2013-02-24 02:15:00,32.2,23.5,28.67,SSW,193,0.0,0.0,70,0.00,,---,0.00,VWS V14.01,2013-02-24 10:15:00,
2013-02-24 02:20:00,32.2,23.5,28.67,SSW,193,0.0,0.0,70,0.00,,---,0.00,VWS V14.01,2013-02-24 10:20:00,
2013-02-24 02:25:00,32.2,23.5,28.67,SSW,193,0.0,0.0,70,0.00,,---,0.00,VWS V14.01,2013-02-24 10:25:00,
2013-02-24 02:30:00,32.2,23.5,28.67,SSW,193,0.0,0.0,70,0.00,,---,0.00,VWS V14.01,2013-02-24 10:30:00,
2013-02-24 02:36:00,32.2,23.5,28.67,SSW,193,0.0,0.0,70,0.00,,---,0.00,VWS V14.01,2013-02-24 10:36:00,
2013-02-24 02:41:00,32.2,23.5,28.67,SSW,193,0.0,0.0,70,0.00,,---,0.00,VWS V14.01,2013-02-24 10:41:00,
2013-02-24 02:46:00,32.5,24.2,28.67,SSW,193,0.0,0.0,71,0.00,,---,0.00,VWS V14.01,2013-02-24 10:46:00,
2013-02-24 02:51:00,32.5,24.2,28.67,SSW,193,0.0,0.0,71,0.00,,---,0.00,VWS V14.01,2013-02-24 10:51:00,
2013-02-24 02:57:00,32.5,24.2,28.67,SSW,193,0.0,0.0,71,0.00,,---,0.00,VWS V14.01,2013-02-24 10:57:00,
2013-02-24 03:02:00,32.5,24.2,28.67,SSW,193,0.0,0.0,71,0.00,,---,0.00,VWS V14.01,2013-02-24 11:02:00,
2013-02-24 03:07:00,32.5,24.2,28.67,SSW,193,0.0,0.0,71,0.00,,---,0.00,VWS V14.01,2013-02-24 11:07:00,
2013-02-24 03:12:00,32.5,24.2,28.67,SSW,193,0.0,0.0,71,0.00,,---,0.00,VWS V14.01,2013-02-24 11:12:00,
2013-02-24 03:18:00,32.5,24.2,28.67,SSW,193,0.0,0.0,71,0.00,,---,0.00,VWS V14.01,2013-02-24 11:18:00,
2013-02-24 03:23:00,32.5,24.2,28.67,SSW,193,0.0,0.0,71,0.00,,---,0.00,VWS V14.01,2013-02-24 11:23:00,
2013-02-24 03:28:00,32.5,24.2,28.67,SSW,193,0.0,0.0,71,0.00,,---,0.00,VWS V14.01,2013-02-24 11:28:00,
2013-02-24 03:33:00,32.5,24.2,28.67,SSW,193,0.0,0.0,71,0.00,,---,0.00,VWS V14.01,2013-02-24 11:33:00,
2013-02-24 03:39:00,32.5,24.2,28.64,SSW,193,0.0,0.0,71,0.00,,---,0.00,VWS V14.01,2013-02-24 11:39:00,
2013-02-24 03:44:00,32.5,24.2,28.64,SSW,193,0.0,0.0,71,0.00,,---,0.00,VWS V14.01,2013-02-24 11:44:00,
2013-02-24 03:49:00,32.5,24.2,28.64,SSW,193,0.0,0.0,71,0.00,,---,0.00,VWS V14.01,2013-02-24 11:49:00,
2013-02-24 03:54:00,32.5,24.2,28.64,SSW,193,0.0,0.0,71,0.00,,---,0.00,VWS V14.01,2013-02-24 11:54:00,
2013-02-24 04:00:00,32.7,24.7,28.64,SSW,193,0.0,0.0,72,0.00,,---,0.00,VWS V14.01,2013-02-24 12:00:00,
2013-02-24 04:05:00,32.7,24.7,28.64,SSW,193,0.0,0.0,72,0.00,,---,0.00,VWS V14.01,2013-02-24 12:05:00,
2013-02-24 04:10:00,32.7,24.7,28.64,SSW,193,0.0,0.0,72,0.00,,---,0.00,VWS V14.01,2013-02-24 12:10:00,
2013-02-24 04:15:00,32.7,24.7,28.64,SSW,193,0.0,0.0,72,0.00,,---,0.00,VWS V14.01,2013-02-24 12:15:00,
2013-02-24 04:21:00,32.7,24.7,28.64,SSW,193,0.0,0.0,72,0.00,,---,0.00,VWS V14.01,2013-02-24 12:21:00,
2013-02-24 04:26:00,32.7,24.7,28.64,SSW,193,0.0,0.0,72,0.00,,---,0.00,VWS V14.01,2013-02-24 12:26:00,
2013-02-24 04:31:00,32.7,24.7,28.64,SSW,193,0.0,0.0,72,0.00,,---,0.00,VWS V14.01,2013-02-24 12:31:00,
2013-02-24 04:36:00,32.7,24.7,28.64,SSW,193,0.0,0.0,72,0.00,,---,0.00,VWS V14.01,2013-02-24 12:36:00,
2013-02-24 04:42:00,32.7,24.7,28.64,SSW,193,0.0,0.0,72,0.00,,---,0.00,VWS V14.01,2013-02-24 12:42:00,
2013-02-24 04:47:00,32.7,24.7,28.64,SSW,193,0.0,0.0,72,0.00,,---,0.00,VWS V14.01,2013-02-24 12:47:00,
2013-02-24 04:52:00,32.7,24.7,28.64,SSW,193,0.0,0.0,72,0.00,,---,0.00,VWS V14.01,2013-02-24 12:52:00,
2013-02-24 04:57:00,32.7,24.7,28.64,SSW,193,0.0,0.0,72,0.00,,---,0.00,VWS V14.01,2013-02-24 12:57:00,
2013-02-24 05:03:00,32.7,24.7,28.64,SSW,193,0.0,0.0,72,0.00,,---,0.00,VWS V14.01,2013-02-24 13:03:00,
2013-02-24 05:08:00,32.7,24.7,28.64,SSW,193,0.0,0.0,72,0.00,,---,0.00,VWS V14.01,2013-02-24 13:08:00,
2013-02-24 05:13:00,32.7,24.7,28.64,SSW,193,0.0,0.0,72,0.00,,---,0.00,VWS V14.01,2013-02-24 13:13:00,
2013-02-24 05:18:00,32.7,24.7,28.64,SSW,193,0.0,0.0,72,0.00,,---,0.00,VWS V14.01,2013-02-24 13:18:00,
2013-02-24 05:24:00,32.7,24.7,28.64,SSW,193,0.0,0.0,72,0.00,,---,0.00,VWS V14.01,2013-02-24 13:24:00,
2013-02-24 05:29:00,32.7,24.7,28.64,SSW,193,0.0,0.0,72,0.00,,---,0.00,VWS V14.01,2013-02-24 13:29:00,
2013-02-24 05:34:00,32.7,24.7,28.64,SSW,193,0.0,0.0,72,0.00,,---,0.00,VWS V14.01,2013-02-24 13:34:00,
2013-02-24 05:39:00,32.7,24.7,28.64,SSW,192,0.0,0.0,72,0.00,,---,0.00,VWS V14.01,2013-02-24 13:39:00,
2013-02-24 05:45:00,32.7,24.7,28.64,SSW,192,0.0,0.0,72,0.00,,---,0.00,VWS V14.01,2013-02-24 13:45:00,
2013-02-24 05:50:00,32.7,24.7,28.64,SSW,193,0.0,0.0,72,0.00,,---,0.00,VWS V14.01,2013-02-24 13:50:00,
2013-02-24 05:56:00,33.1,25.0,28.64,SSW,192,0.0,0.0,72,0.00,,---,0.00,VWS V14.01,2013-02-24 13:56:00,
2013-02-24 06:01:00,33.1,25.0,28.64,SSW,192,0.0,0.0,72,0.00,,---,0.00,VWS V14.01,2013-02-24 14:01:00,
2013-02-24 06:06:00,33.1,25.0,28.64,SSW,192,0.0,0.0,72,0.00,,---,0.00,VWS V14.01,2013-02-24 14:06:00,
2013-02-24 06:12:00,33.1,25.0,28.64,SSW,192,0.0,0.0,72,0.00,,---,0.00,VWS V14.01,2013-02-24 14:12:00,
2013-02-24 06:17:00,33.3,25.6,28.64,SSW,192,0.0,0.0,73,0.00,,---,0.00,VWS V14.01,2013-02-24 14:17:00,
2013-02-24 06:23:00,33.3,25.6,28.64,SSW,192,0.0,0.0,73,0.00,,---,0.00,VWS V14.01,2013-02-24 14:23:00,
2013-02-24 06:28:00,33.3,25.6,28.64,SSW,192,0.0,0.0,73,0.00,,---,0.00,VWS V14.01,2013-02-24 14:28:00,
2013-02-24 06:33:00,33.4,25.7,28.64,SSW,192,0.0,0.0,73,0.00,,---,0.00,VWS V14.01,2013-02-24 14:33:00,
2013-02-24 06:38:00,33.4,25.7,28.64,SSW,193,0.0,0.0,73,0.00,,---,0.00,VWS V14.01,2013-02-24 14:38:00,
2013-02-24 06:44:00,33.4,25.7,28.64,SSW,192,0.0,0.0,73,0.00,,---,0.00,VWS V14.01,2013-02-24 14:44:00,
2013-02-24 06:49:00,33.3,25.6,28.64,SSW,192,0.0,0.0,73,0.00,,---,0.00,VWS V14.01,2013-02-24 14:49:00,
2013-02-24 06:54:00,33.3,25.6,28.64,SSW,192,0.0,0.0,73,0.00,,---,0.00,VWS V14.01,2013-02-24 14:54:00,
2013-02-24 06:59:00,33.1,25.0,28.64,SSW,192,0.0,0.0,72,0.00,,---,0.00,VWS V14.01,2013-02-24 14:59:00,
2013-02-24 07:05:00,33.1,25.0,28.64,SSW,192,0.0,0.0,72,0.00,,---,0.00,VWS V14.01,2013-02-24 15:05:00,
2013-02-24 07:10:00,33.1,25.0,28.64,SSW,192,0.0,0.0,72,0.00,,---,0.00,VWS V14.01,2013-02-24 15:10:00,
2013-02-24 07:15:00,33.3,24.9,28.64,SSW,192,0.0,0.0,71,0.00,,---,0.00,VWS V14.01,2013-02-24 15:15:00,
2013-02-24 07:20:00,33.3,24.9,28.64,SSW,192,0.0,0.0,71,0.00,,---,0.00,VWS V14.01,2013-02-24 15:20:00,
2013-02-24 07:26:00,33.3,24.9,28.64,SSW,192,0.0,0.0,71,0.00,,---,0.00,VWS V14.01,2013-02-24 15:26:00,
2013-02-24 07:31:00,33.3,24.5,28.64,SSW,192,0.0,0.0,70,0.00,,---,0.00,VWS V14.01,2013-02-24 15:31:00,
2013-02-24 07:36:00,33.4,24.7,28.64,SSW,192,0.0,0.0,70,0.00,,---,0.00,VWS V14.01,2013-02-24 15:36:00,
2013-02-24 07:42:00,33.4,24.4,28.64,SSW,192,0.0,0.0,69,0.00,,---,0.00,VWS V14.01,2013-02-24 15:42:00,
2013-02-24 07:47:00,33.4,24.4,28.64,SSW,192,0.0,0.0,69,0.00,,---,0.00,VWS V14.01,2013-02-24 15:47:00,
2013-02-24 07:52:00,33.4,24.4,28.64,SSW,192,0.0,0.0,69,0.00,,---,0.00,VWS V14.01,2013-02-24 15:52:00,
2013-02-24 07:57:00,33.4,24.4,28.64,SSW,192,0.0,0.0,69,0.00,,---,0.00,VWS V14.01,2013-02-24 15:57:00,
2013-02-24 08:03:00,33.4,24.4,28.64,SSW,192,0.0,0.0,69,0.00,,---,0.00,VWS V14.01,2013-02-24 16:03:00,
2013-02-24 08:08:00,34.0,23.5,28.64,SSW,192,0.0,0.0,65,0.00,,---,0.00,VWS V14.01,2013-02-24 16:08:00,
2013-02-24 08:13:00,34.0,23.5,28.64,South,190,0.0,0.0,65,0.00,,---,0.00,VWS V14.01,2013-02-24 16:13:00,
2013-02-24 08:18:00,34.0,23.5,28.64,SSE,163,0.0,0.0,65,0.00,,---,0.00,VWS V14.01,2013-02-24 16:18:00,
2013-02-24 08:24:00,33.6,21.2,28.64,SSE,163,0.0,0.0,60,0.00,,---,0.00,VWS V14.01,2013-02-24 16:24:00,
2013-02-24 08:29:00,33.6,21.2,28.64,SSE,163,0.0,0.0,60,0.00,,---,0.00,VWS V14.01,2013-02-24 16:29:00,
2013-02-24 08:34:00,33.8,20.2,28.64,SSE,163,0.0,0.0,57,0.00,,---,0.00,VWS V14.01,2013-02-24 16:34:00,
2013-02-24 08:39:00,33.8,20.2,28.64,SSE,163,0.0,0.0,57,0.00,,---,0.00,VWS V14.01,2013-02-24 16:39:00,
2013-02-24 08:45:00,33.6,17.9,28.64,SSE,163,0.0,0.0,52,0.00,,---,0.00,VWS V14.01,2013-02-24 16:45:00,
2013-02-24 08:50:00,33.8,17.6,28.64,SSE,163,0.0,0.0,51,0.00,,---,0.00,VWS V14.01,2013-02-24 16:50:00,
2013-02-24 08:55:00,33.8,17.6,28.64,SSE,160,0.0,0.0,51,0.00,,---,0.00,VWS V14.01,2013-02-24 16:55:00,
2013-02-24 09:01:00,34.5,18.3,28.64,SE,129,0.0,0.0,51,0.00,,---,0.00,VWS V14.01,2013-02-24 17:01:00,
2013-02-24 09:06:00,34.5,18.3,28.64,SE,129,0.0,0.0,51,0.00,,---,0.00,VWS V14.01,2013-02-24 17:06:00,
2013-02-24 09:11:00,35.8,17.5,28.64,ESE,120,2.2,2.2,47,0.00,,---,0.00,VWS V14.01,2013-02-24 17:11:00,
2013-02-24 09:16:00,35.8,17.5,28.64,ESE,116,0.0,0.0,47,0.00,,---,0.00,VWS V14.01,2013-02-24 17:16:00,
2013-02-24 09:22:00,35.8,17.5,28.64,ESE,116,0.0,0.0,47,0.00,,---,0.00,VWS V14.01,2013-02-24 17:22:00,
2013-02-24 09:27:00,35.8,17.5,28.64,NNE,19,0.0,0.0,47,0.00,,---,0.00,VWS V14.01,2013-02-24 17:27:00,
2013-02-24 09:32:00,35.8,17.5,28.64,NE,44,0.0,0.0,47,0.00,,---,0.00,VWS V14.01,2013-02-24 17:32:00,
2013-02-24 09:37:00,35.8,17.5,28.64,ENE,61,0.0,0.0,47,0.00,,---,0.00,VWS V14.01,2013-02-24 17:37:00,
2013-02-24 09:43:00,35.8,17.5,28.64,ENE,61,0.0,0.0,47,0.00,,---,0.00,VWS V14.01,2013-02-24 17:43:00,
2013-02-24 09:48:00,35.8,17.5,28.64,NNE,30,0.0,0.0,47,0.00,,---,0.00,VWS V14.01,2013-02-24 17:48:00,
2013-02-24 09:53:00,35.8,17.5,28.64,ENE,59,0.0,0.0,47,0.00,,---,0.00,VWS V14.01,2013-02-24 17:53:00,
2013-02-24 09:59:00,35.8,17.5,28.64,NE,48,0.0,0.0,47,0.00,,---,0.00,VWS V14.01,2013-02-24 17:59:00,
2013-02-24 10:04:00,39.2,16.9,28.64,NE,45,0.0,0.0,40,0.00,,---,0.00,VWS V14.01,2013-02-24 18:04:00,
2013-02-24 10:09:00,39.2,16.9,28.64,NE,45,0.0,0.0,40,0.00,,---,0.00,VWS V14.01,2013-02-24 18:09:00,
2013-02-24 10:14:00,39.7,15.6,28.64,ENE,69,0.0,0.0,37,0.00,,---,0.00,VWS V14.01,2013-02-24 18:14:00,
2013-02-24 10:20:00,39.9,17.0,28.64,NE,49,0.0,0.0,39,0.00,,---,0.00,VWS V14.01,2013-02-24 18:20:00,
2013-02-24 10:25:00,39.7,15.0,28.64,NE,49,0.0,0.0,36,0.00,,---,0.00,VWS V14.01,2013-02-24 18:25:00,
2013-02-24 10:30:00,39.7,15.0,28.64,ENE,66,0.0,0.0,36,0.00,,---,0.00,VWS V14.01,2013-02-24 18:30:00,
2013-02-24 10:35:00,40.8,15.9,28.64,East,97,0.0,0.0,36,0.00,,---,0.00,VWS V14.01,2013-02-24 18:35:00,
2013-02-24 10:41:00,41.2,16.3,28.61,East,97,0.0,0.0,36,0.00,,---,0.00,VWS V14.01,2013-02-24 18:41:00,
2013-02-24 10:46:00,41.2,16.3,28.61,East,82,0.0,0.0,36,0.00,,---,0.00,VWS V14.01,2013-02-24 18:46:00,
2013-02-24 10:51:00,41.2,15.6,28.61,NNE,33,0.0,0.0,35,0.00,,---,0.00,VWS V14.01,2013-02-24 18:51:00,
2013-02-24 10:56:00,41.2,15.6,28.61,East,79,0.0,0.0,35,0.00,,---,0.00,VWS V14.01,2013-02-24 18:56:00,
2013-02-24 11:01:00,41.2,15.6,28.61,ENE,62,0.0,0.0,35,0.00,,---,0.00,VWS V14.01,2013-02-24 19:01:00,
2013-02-24 11:07:00,41.2,15.6,28.61,NE,34,0.0,0.0,35,0.00,,---,0.00,VWS V14.01,2013-02-24 19:07:00,
2013-02-24 11:12:00,41.2,15.6,28.61,NE,51,4.0,4.0,35,0.00,,---,0.00,VWS V14.01,2013-02-24 19:12:00,
2013-02-24 11:17:00,41.2,15.6,28.61,NE,53,5.4,5.4,35,0.00,,---,0.00,VWS V14.01,2013-02-24 19:17:00,
2013-02-24 11:23:00,41.2,15.6,28.61,North,357,0.0,2.2,35,0.00,,---,0.00,VWS V14.01,2013-02-24 19:23:00,
2013-02-24 11:28:00,41.2,15.6,28.61,NNE,16,2.7,2.7,35,0.00,,---,0.00,VWS V14.01,2013-02-24 19:28:00,
2013-02-24 11:33:00,41.2,15.6,28.61,NNE,22,0.0,3.1,35,0.00,,---,0.00,VWS V14.01,2013-02-24 19:33:00,
2013-02-24 11:38:00,41.2,15.6,28.61,NNW,348,2.2,2.2,35,0.00,,---,0.00,VWS V14.01,2013-02-24 19:38:00,
2013-02-24 11:44:00,41.2,15.6,28.61,NNW,338,0.0,3.6,35,0.00,,---,0.00,VWS V14.01,2013-02-24 19:44:00,
2013-02-24 11:49:00,41.2,15.6,28.61,NNE,31,0.0,0.0,35,0.00,,---,0.00,VWS V14.01,2013-02-24 19:49:00,
2013-02-24 11:54:00,41.2,15.6,28.61,NNE,18,2.7,3.6,35,0.00,,---,0.00,VWS V14.01,2013-02-24 19:54:00,
2013-02-24 11:59:00,41.2,15.6,28.61,ENE,68,2.7,2.7,35,0.00,,---,0.00,VWS V14.01,2013-02-24 19:59:00,
2013-02-24 12:05:00,41.2,15.6,28.61,North,4,3.1,3.1,35,0.00,,---,0.00,VWS V14.01,2013-02-24 20:05:00,
2013-02-24 12:10:00,41.2,15.6,28.61,North,0,2.7,2.7,35,0.00,,---,0.00,VWS V14.01,2013-02-24 20:10:00,
2013-02-24 12:15:00,41.2,15.6,28.61,ENE,73,0.0,3.1,35,0.00,,---,0.00,VWS V14.01,2013-02-24 20:15:00,
2013-02-24 12:20:00,41.2,15.6,28.61,NNE,16,2.7,4.0,35,0.00,,---,0.00,VWS V14.01,2013-02-24 20:20:00,
2013-02-24 12:25:00,43.3,13.2,28.59,East,97,2.7,2.7,29,0.00,,---,0.00,VWS V14.01,2013-02-24 20:25:00,
2013-02-24 12:30:00,43.3,13.2,28.59,East,88,0.0,2.7,29,0.00,,---,0.00,VWS V14.01,2013-02-24 20:30:00,
2013-02-24 12:35:00,44.6,13.5,28.59,ESE,114,3.1,3.1,28,0.00,,---,0.00,VWS V14.01,2013-02-24 20:35:00,
2013-02-24 12:41:00,44.6,13.5,28.59,ESE,114,0.0,0.0,28,0.00,,---,0.00,VWS V14.01,2013-02-24 20:41:00,
2013-02-24 12:46:00,44.6,13.5,28.59,NE,43,0.0,0.0,28,0.00,,---,0.00,VWS V14.01,2013-02-24 20:46:00,
2013-02-24 12:51:00,44.6,13.5,28.59,South,175,0.0,0.0,28,0.00,,---,0.00,VWS V14.01,2013-02-24 20:51:00,
2013-02-24 12:56:00,46.6,14.4,28.59,ESE,121,0.0,0.0,27,0.00,,---,0.00,VWS V14.01,2013-02-24 20:56:00,
2013-02-24 13:02:00,46.6,14.4,28.59,SSE,164,0.0,0.0,27,0.00,,---,0.00,VWS V14.01,2013-02-24 21:02:00,
2013-02-24 13:07:00,46.6,14.4,28.59,SW,226,0.0,0.0,27,0.00,,---,0.00,VWS V14.01,2013-02-24 21:07:00,
2013-02-24 13:12:00,46.6,14.4,28.59,SSW,196,0.0,0.0,27,0.00,,---,0.00,VWS V14.01,2013-02-24 21:12:00,
2013-02-24 13:17:00,46.4,11.6,28.59,South,180,0.0,3.1,24,0.00,,---,0.00,VWS V14.01,2013-02-24 21:17:00,
2013-02-24 13:23:00,46.2,12.4,28.59,South,180,0.0,0.0,25,0.00,,---,0.00,VWS V14.01,2013-02-24 21:23:00,
2013-02-24 13:28:00,45.1,13.2,28.59,SE,143,0.0,0.0,27,0.00,,---,0.00,VWS V14.01,2013-02-24 21:28:00,
2013-02-24 13:33:00,45.1,13.2,28.59,SW,219,0.0,0.0,27,0.00,,---,0.00,VWS V14.01,2013-02-24 21:33:00,
2013-02-24 13:38:00,45.1,13.2,28.59,NE,46,2.7,2.7,27,0.00,,---,0.00,VWS V14.01,2013-02-24 21:38:00,
2013-02-24 13:44:00,44.8,13.7,28.56,SW,223,3.1,3.1,28,0.00,,---,0.00,VWS V14.01,2013-02-24 21:44:00,
2013-02-24 13:49:00,44.8,13.7,28.56,SW,223,3.1,3.1,28,0.00,,---,0.00,VWS V14.01,2013-02-24 21:49:00,
2013-02-24 13:54:00,44.6,13.5,28.56,SSW,196,0.0,3.1,28,0.00,,---,0.00,VWS V14.01,2013-02-24 21:54:00,
2013-02-24 13:59:00,44.6,13.5,28.56,East,99,2.7,2.7,28,0.00,,---,0.00,VWS V14.01,2013-02-24 21:59:00,
2013-02-24 14:05:00,44.2,14.0,28.56,SSE,161,3.1,3.1,29,0.00,,---,0.00,VWS V14.01,2013-02-24 22:05:00,
2013-02-24 14:10:00,44.1,13.1,28.56,SE,140,0.0,3.1,28,0.00,,---,0.00,VWS V14.01,2013-02-24 22:10:00,
2013-02-24 14:15:00,44.1,13.9,28.56,SE,140,0.0,0.0,29,0.00,,---,0.00,VWS V14.01,2013-02-24 22:15:00,
2013-02-24 14:20:00,44.1,13.9,28.56,SE,143,3.1,3.1,29,0.00,,---,0.00,VWS V14.01,2013-02-24 22:20:00,
2013-02-24 14:26:00,44.1,13.9,28.56,South,172,2.2,2.2,29,0.00,,---,0.00,VWS V14.01,2013-02-24 22:26:00,
2013-02-24 14:31:00,44.6,13.5,28.56,SSE,151,3.1,3.1,28,0.00,,---,0.00,VWS V14.01,2013-02-24 22:31:00,
2013-02-24 14:36:00,44.8,13.7,28.56,South,176,3.6,3.6,28,0.00,,---,0.00,VWS V14.01,2013-02-24 22:36:00,
2013-02-24 14:41:00,45.0,13.8,28.56,South,176,3.6,3.6,28,0.00,,---,0.00,VWS V14.01,2013-02-24 22:41:00,
2013-02-24 14:47:00,45.1,14.8,28.56,South,172,3.1,3.1,29,0.00,,---,0.00,VWS V14.01,2013-02-24 22:47:00,
2013-02-24 14:52:00,45.1,14.0,28.56,South,182,5.4,5.4,28,0.00,,---,0.00,VWS V14.01,2013-02-24 22:52:00,
2013-02-24 14:57:00,45.1,14.0,28.56,SSW,192,5.8,5.8,28,0.00,,---,0.00,VWS V14.01,2013-02-24 22:57:00,
2013-02-24 15:02:00,45.3,14.1,28.56,South,190,4.0,5.8,28,0.00,,---,0.00,VWS V14.01,2013-02-24 23:02:00,
2013-02-24 15:08:00,45.1,14.0,28.56,SSE,162,4.9,4.9,28,0.00,,---,0.00,VWS V14.01,2013-02-24 23:08:00,
2013-02-24 15:13:00,45.1,14.0,28.53,SSW,200,4.0,7.6,28,0.00,,---,0.00,VWS V14.01,2013-02-24 23:13:00,
2013-02-24 15:18:00,45.0,13.8,28.53,South,169,6.3,6.3,28,0.00,,---,0.00,VWS V14.01,2013-02-24 23:18:00,
2013-02-24 15:23:00,45.0,13.8,28.53,SSW,207,4.0,4.0,28,0.00,,---,0.00,VWS V14.01,2013-02-24 23:23:00,
2013-02-24 15:29:00,45.0,13.8,28.53,SW,215,3.6,4.9,28,0.00,,---,0.00,VWS V14.01,2013-02-24 23:29:00,
2013-02-24 15:34:00,44.4,14.2,28.53,SSW,211,5.8,6.3,29,0.00,,---,0.00,VWS V14.01,2013-02-24 23:34:00,
2013-02-24 15:39:00,44.2,14.0,28.53,SSW,209,3.1,5.8,29,0.00,,---,0.00,VWS V14.01,2013-02-24 23:39:00,
2013-02-24 15:44:00,44.2,14.0,28.53,SSW,193,2.7,5.8,29,0.00,,---,0.00,VWS V14.01,2013-02-24 23:44:00,
2013-02-24 15:50:00,44.4,14.2,28.53,SSW,194,3.1,5.4,29,0.00,,---,0.00,VWS V14.01,2013-02-24 23:50:00,
2013-02-24 15:55:00,44.4,14.2,28.53,SE,145,0.0,3.1,29,0.00,,---,0.00,VWS V14.01,2013-02-24 23:55:00,
2013-02-24 16:00:00,44.2,14.0,28.53,SSW,199,4.0,4.0,29,0.00,,---,0.00,VWS V14.01,2013-02-25 00:00:00,
2013-02-24 16:05:00,44.1,13.9,28.53,SSW,193,3.6,3.6,29,0.00,,---,0.00,VWS V14.01,2013-02-25 00:05:00,
2013-02-24 16:11:00,43.7,13.5,28.53,SSW,203,3.6,5.4,29,0.00,,---,0.00,VWS V14.01,2013-02-25 00:11:00,
2013-02-24 16:16:00,43.5,13.4,28.53,South,188,3.6,6.3,29,0.00,,---,0.00,VWS V14.01,2013-02-25 00:16:00,
2013-02-24 16:21:00,43.3,13.2,28.53,South,183,2.7,3.6,29,0.00,,---,0.00,VWS V14.01,2013-02-25 00:21:00,
2013-02-24 16:26:00,43.3,13.2,28.50,SSW,199,3.6,5.8,29,0.00,,---,0.00,VWS V14.01,2013-02-25 00:26:00,
2013-02-24 16:32:00,43.2,13.8,28.50,SSW,206,3.1,3.1,30,0.00,,---,0.00,VWS V14.01,2013-02-25 00:32:00,
2013-02-24 16:37:00,43.0,13.7,28.50,SSW,200,2.7,3.1,30,0.00,,---,0.00,VWS V14.01,2013-02-25 00:37:00,
2013-02-24 16:42:00,43.0,13.7,28.50,SSW,198,0.0,0.0,30,0.00,,---,0.00,VWS V14.01,2013-02-25 00:42:00,
2013-02-24 16:47:00,43.0,13.7,28.50,SW,216,3.1,3.1,30,0.00,,---,0.00,VWS V14.01,2013-02-25 00:47:00,
2013-02-24 16:53:00,42.8,14.3,28.50,SW,223,2.7,2.7,31,0.00,,---,0.00,VWS V14.01,2013-02-25 00:53:00,
2013-02-24 16:58:00,42.4,14.7,28.50,SW,221,2.7,2.7,32,0.00,,---,0.00,VWS V14.01,2013-02-25 00:58:00,
2013-02-24 17:03:00,42.4,14.7,28.50,SW,221,2.2,2.7,32,0.00,,---,0.00,VWS V14.01,2013-02-25 01:03:00,
2013-02-24 17:09:00,42.3,15.2,28.50,SW,221,2.7,2.7,33,0.00,,---,0.00,VWS V14.01,2013-02-25 01:09:00,
2013-02-24 17:14:00,41.9,15.6,28.50,SW,221,0.0,2.7,34,0.00,,---,0.00,VWS V14.01,2013-02-25 01:14:00,
2013-02-24 17:19:00,41.5,16.6,28.50,SW,222,0.0,0.0,36,0.00,,---,0.00,VWS V14.01,2013-02-25 01:19:00,
2013-02-24 17:24:00,41.0,17.4,28.50,SW,222,0.0,0.0,38,0.00,,---,0.00,VWS V14.01,2013-02-25 01:24:00,
2013-02-24 17:30:00,40.6,17.6,28.50,SSW,210,0.0,0.0,39,0.00,,---,0.00,VWS V14.01,2013-02-25 01:30:00,
2013-02-24 17:35:00,39.9,17.6,28.50,SW,214,0.0,0.0,40,0.00,,---,0.00,VWS V14.01,2013-02-25 01:35:00,
2013-02-24 17:40:00,39.9,17.6,28.50,SSW,213,0.0,2.7,40,0.00,,---,0.00,VWS V14.01,2013-02-25 01:40:00,
2013-02-24 17:45:00,39.6,17.2,28.50,SSW,211,2.7,2.7,40,0.00,,---,0.00,VWS V14.01,2013-02-25 01:45:00,
2013-02-24 17:51:00,38.8,17.7,28.50,SSW,211,0.0,0.0,42,0.00,,---,0.00,VWS V14.01,2013-02-25 01:51:00,
2013-02-24 17:56:00,38.8,17.7,28.47,SSW,194,3.1,3.6,42,0.00,,---,0.00,VWS V14.01,2013-02-25 01:56:00,
2013-02-24 18:01:00,38.7,18.6,28.47,SW,214,3.1,3.1,44,0.00,,---,0.00,VWS V14.01,2013-02-25 02:01:00,
2013-02-24 18:06:00,38.3,18.3,28.47,SSW,208,2.7,2.7,44,0.00,,---,0.00,VWS V14.01,2013-02-25 02:06:00,
2013-02-24 18:12:00,38.1,18.1,28.47,SSW,203,3.6,3.6,44,0.00,,---,0.00,VWS V14.01,2013-02-25 02:12:00,
2013-02-24 18:17:00,37.9,18.5,28.47,SSW,210,2.7,2.7,45,0.00,,---,0.00,VWS V14.01,2013-02-25 02:17:00,
2013-02-24 18:22:00,37.9,19.0,28.47,SW,216,0.0,4.0,46,0.00,,---,0.00,VWS V14.01,2013-02-25 02:22:00,
2013-02-24 18:27:00,37.9,19.0,28.47,SW,216,0.0,0.0,46,0.00,,---,0.00,VWS V14.01,2013-02-25 02:27:00,
2013-02-24 18:33:00,37.8,19.4,28.47,SW,215,0.0,0.0,47,0.00,,---,0.00,VWS V14.01,2013-02-25 02:33:00,
2013-02-24 18:38:00,37.6,19.2,28.47,SW,215,0.0,0.0,47,0.00,,---,0.00,VWS V14.01,2013-02-25 02:38:00,
2013-02-24 18:43:00,37.2,19.4,28.47,SW,215,0.0,0.0,48,0.00,,---,0.00,VWS V14.01,2013-02-25 02:43:00,
2013-02-24 18:49:00,37.0,19.7,28.47,SW,215,0.0,0.0,49,0.00,,---,0.00,VWS V14.01,2013-02-25 02:49:00,
2013-02-24 18:54:00,37.0,19.7,28.47,SW,215,0.0,0.0,49,0.00,,---,0.00,VWS V14.01,2013-02-25 02:54:00,
2013-02-24 18:59:00,36.7,19.8,28.47,SW,215,0.0,0.0,50,0.00,,---,0.00,VWS V14.01,2013-02-25 02:59:00,
2013-02-24 19:04:00,36.7,19.8,28.47,SW,215,0.0,0.0,50,0.00,,---,0.00,VWS V14.01,2013-02-25 03:04:00,
2013-02-24 19:09:00,36.5,19.6,28.47,SW,215,0.0,0.0,50,0.00,,---,0.00,VWS V14.01,2013-02-25 03:09:00,
2013-02-24 19:15:00,36.5,19.6,28.47,SW,215,0.0,0.0,50,0.00,,---,0.00,VWS V14.01,2013-02-25 03:15:00,
2013-02-24 19:20:00,36.5,19.6,28.47,SW,215,0.0,0.0,50,0.00,,---,0.00,VWS V14.01,2013-02-25 03:20:00,
2013-02-24 19:25:00,36.5,20.1,28.47,SW,219,2.2,2.2,51,0.00,,---,0.00,VWS V14.01,2013-02-25 03:25:00,
2013-02-24 19:30:00,36.5,20.1,28.47,SW,219,2.2,2.2,51,0.00,,---,0.00,VWS V14.01,2013-02-25 03:30:00,
2013-02-24 19:35:00,36.3,20.4,28.47,SSW,201,0.0,2.2,52,0.00,,---,0.00,VWS V14.01,2013-02-25 03:35:00,
2013-02-24 19:40:00,36.3,20.4,28.47,SSW,201,0.0,0.0,52,0.00,,---,0.00,VWS V14.01,2013-02-25 03:40:00,
2013-02-24 19:45:00,36.3,20.4,28.47,SSW,201,0.0,0.0,52,0.00,,---,0.00,VWS V14.01,2013-02-25 03:45:00,
2013-02-24 19:50:00,35.8,19.9,28.47,SSW,201,0.0,0.0,52,0.00,,---,0.00,VWS V14.01,2013-02-25 03:50:00,
2013-02-24 19:56:00,35.8,20.3,28.47,SSW,201,0.0,0.0,53,0.00,,---,0.00,VWS V14.01,2013-02-25 03:56:00,
2013-02-24 20:01:00,35.8,20.3,28.47,SSW,201,0.0,0.0,53,0.00,,---,0.00,VWS V14.01,2013-02-25 04:01:00,
2013-02-24 20:06:00,36.1,20.7,28.47,SSW,201,0.0,0.0,53,0.00,,---,0.00,VWS V14.01,2013-02-25 04:06:00,
2013-02-24 20:11:00,36.1,20.7,28.47,SSW,201,0.0,0.0,53,0.00,,---,0.00,VWS V14.01,2013-02-25 04:11:00,
2013-02-24 20:17:00,36.3,21.7,28.44,SSW,201,0.0,0.0,55,0.00,,---,0.00,VWS V14.01,2013-02-25 04:17:00,
2013-02-24 20:22:00,36.3,21.7,28.44,SSW,201,0.0,0.0,55,0.00,,---,0.00,VWS V14.01,2013-02-25 04:22:00,
2013-02-24 20:27:00,36.5,21.9,28.44,SSW,201,0.0,0.0,55,0.00,,---,0.00,VWS V14.01,2013-02-25 04:27:00,
2013-02-24 20:32:00,36.5,21.9,28.44,SSW,192,3.1,3.1,55,0.00,,---,0.00,VWS V14.01,2013-02-25 04:32:00,
2013-02-24 20:38:00,36.5,21.9,28.44,SW,223,4.0,4.0,55,0.00,,---,0.00,VWS V14.01,2013-02-25 04:38:00,
2013-02-24 20:43:00,37.9,23.2,28.44,South,190,4.9,4.9,55,0.00,,---,0.00,VWS V14.01,2013-02-25 04:43:00,
2013-02-24 20:48:00,37.9,23.2,28.44,South,189,4.9,5.4,55,0.00,,---,0.00,VWS V14.01,2013-02-25 04:48:00,
2013-02-24 20:53:00,38.3,22.7,28.44,South,189,3.6,4.9,53,0.00,,---,0.00,VWS V14.01,2013-02-25 04:53:00,
2013-02-24 20:59:00,38.3,22.7,28.44,SSW,206,4.0,4.0,53,0.00,,---,0.00,VWS V14.01,2013-02-25 04:59:00,
2013-02-24 21:00:00,38.3,22.7,28.44,SSW,206,4.0,4.0,53,0.00,,---,0.00,VWS V14.01,2013-02-25 05:00:00,
2013-02-24 21:01:00,38.3,22.7,28.44,SSW,206,4.0,4.0,53,0.00,,---,0.00,VWS V14.01,2013-02-25 05:01:00,
2013-02-24 21:05:00,38.3,22.7,28.44,South,185,4.0,4.0,53,0.00,,---,0.00,VWS V14.01,2013-02-25 05:05:00,
2013-02-24 21:10:00,39.2,21.7,28.41,South,177,3.1,3.1,49,0.00,,---,0.00,VWS V14.01,2013-02-25 05:10:00,
2013-02-24 21:16:00,39.2,21.7,28.41,South,186,3.1,3.1,49,0.00,,---,0.00,VWS V14.01,2013-02-25 05:16:00,
2013-02-24 21:21:00,39.9,20.8,28.41,SW,216,4.0,4.0,46,0.00,,---,0.00,VWS V14.01,2013-02-25 05:21:00,
2013-02-24 21:26:00,40.3,20.6,28.41,South,186,3.6,3.6,45,0.00,,---,0.00,VWS V14.01,2013-02-25 05:26:00,
2013-02-24 21:31:00,40.6,19.9,28.41,SW,230,6.3,6.3,43,0.00,,---,0.00,VWS V14.01,2013-02-25 05:31:00,
2013-02-24 21:37:00,40.8,19.5,28.41,SSW,194,2.7,3.6,42,0.00,,---,0.00,VWS V14.01,2013-02-25 05:37:00,
2013-02-24 21:42:00,41.2,19.3,28.41,South,189,5.4,5.4,41,0.00,,---,0.00,VWS V14.01,2013-02-25 05:42:00,
2013-02-24 21:47:00,41.0,19.1,28.41,SSW,201,5.4,5.4,41,0.00,,---,0.00,VWS V14.01,2013-02-25 05:47:00,
2013-02-24 21:52:00,41.0,19.1,28.41,South,189,3.1,3.1,41,0.00,,---,0.00,VWS V14.01,2013-02-25 05:52:00,
2013-02-24 21:58:00,41.0,19.1,28.41,SSW,207,5.4,5.4,41,0.00,,---,0.00,VWS V14.01,2013-02-25 05:58:00,
2013-02-24 22:03:00,41.2,19.3,28.41,West,265,2.7,2.7,41,0.00,,---,0.00,VWS V14.01,2013-02-25 06:03:00,
2013-02-24 22:08:00,41.2,18.7,28.41,SSE,167,3.1,3.6,40,0.00,,---,0.00,VWS V14.01,2013-02-25 06:08:00,
2013-02-24 22:13:00,41.2,18.7,28.41,South,185,0.0,3.1,40,0.00,,---,0.00,VWS V14.01,2013-02-25 06:13:00,
2013-02-24 22:19:00,40.8,19.0,28.41,SSW,202,3.6,3.6,41,0.00,,---,0.00,VWS V14.01,2013-02-25 06:19:00,
2013-02-24 22:24:00,40.6,18.8,28.41,South,191,6.3,6.3,41,0.00,,---,0.00,VWS V14.01,2013-02-25 06:24:00,
2013-02-24 22:29:00,40.6,19.4,28.41,SSE,154,5.4,6.3,42,0.00,,---,0.00,VWS V14.01,2013-02-25 06:29:00,
2013-02-24 22:35:00,40.5,19.2,28.41,SSW,211,7.6,7.6,42,0.00,,---,0.00,VWS V14.01,2013-02-25 06:35:00,
2013-02-24 22:40:00,40.3,19.0,28.41,SSW,211,7.6,7.6,42,0.00,,---,0.00,VWS V14.01,2013-02-25 06:40:00,
2013-02-24 22:45:00,40.3,19.0,28.41,South,176,5.8,8.3,42,0.00,,---,0.00,VWS V14.01,2013-02-25 06:45:00,
2013-02-24 22:50:00,40.3,19.0,28.41,SSW,200,5.4,5.8,42,0.00,,---,0.00,VWS V14.01,2013-02-25 06:50:00,
2013-02-24 22:55:00,40.3,19.0,28.41,South,171,5.8,5.8,42,0.00,,---,0.00,VWS V14.01,2013-02-25 06:55:00,
2013-02-24 23:01:00,40.3,19.0,28.41,SSE,160,12.8,12.8,42,0.00,,---,0.00,VWS V14.01,2013-02-25 07:01:00,
2013-02-24 23:06:00,40.3,18.5,28.41,South,178,6.3,6.3,41,0.00,,---,0.00,VWS V14.01,2013-02-25 07:06:00,
2013-02-24 23:11:00,40.5,16.3,28.41,SSW,196,4.0,5.8,37,0.00,,---,0.00,VWS V14.01,2013-02-25 07:11:00,
2013-02-24 23:17:00,40.5,16.3,28.38,SSW,208,7.6,7.6,37,0.00,,---,0.00,VWS V14.01,2013-02-25 07:17:00,
2013-02-24 23:22:00,40.5,16.3,28.38,SW,215,10.1,10.1,37,0.00,,---,0.00,VWS V14.01,2013-02-25 07:22:00,
2013-02-24 23:27:00,40.8,11.8,28.38,South,177,8.1,8.1,30,0.00,,---,0.00,VWS V14.01,2013-02-25 07:27:00,
2013-02-24 23:32:00,40.8,11.8,28.38,SSW,195,7.2,7.2,30,0.00,,---,0.00,VWS V14.01,2013-02-25 07:32:00,
2013-02-24 23:38:00,40.6,13.8,28.38,SW,223,5.8,8.1,33,0.00,,---,0.00,VWS V14.01,2013-02-25 07:38:00,
2013-02-24 23:43:00,40.6,13.8,28.38,South,183,3.6,8.7,33,0.00,,---,0.00,VWS V14.01,2013-02-25 07:43:00,
2013-02-24 23:48:00,40.6,13.8,28.38,South,170,3.6,5.8,33,0.00,,---,0.00,VWS V14.01,2013-02-25 07:48:00,
2013-02-24 23:53:00,40.3,16.7,28.38,SSE,167,5.4,5.4,38,0.00,,---,0.00,VWS V14.01,2013-02-25 07:53:00,
2013-02-24 23:59:00,40.3,16.7,28.38,SSE,167,2.7,4.5,38,0.00,,---,0.00,VWS V14.01,2013-02-25 07:59:00,